Home   Weather   San Andrés   Past weeks

Flag for Colombia Past Weather in San Andrés, Colombia — Yesterday and Last 2 Weeks

Now
86 °F

More clouds than sun.


Feels Like: 99 °F
Forecast: 81 / 87 °F
Wind: 14 mph from Northeast

Location: San Andres Isla / Sesquicentenario

Current Time: Sep 28, 2016 at 3:32:17 PM

Latest Report: Sep 28, 2016 at 3:00 PM


Visibility: N/A

Pressure: 29.87 "Hg

Humidity: 79%

Dew Point: 79 °F

Location of San AndrésLocation

Past Weather in San Andrés — Graph

°F

San Andrés Temperature Yesterday

Maximum temperature yesterday: 88 °F (at 11:00 AM)
Minimum temperature yesterday: 77 °F (at 4:00 PM)
Average temperature yesterday: 83 °F

High & Low Weather Summary for the Past Weeks

 TemperatureHumidityPressure
High90 °F (Sep 18, 2:00 PM)100% (Sep 15, 7:00 PM)29.96 "Hg (Sep 15, 7:00 PM)
Low73 °F (Sep 21, 6:00 AM)66% (Sep 27, 11:00 AM)29.78 "Hg (Sep 20, 5:00 PM)
Average83 °F82%29.86 "Hg
* Reported Sep 13 2:00 PM — Sep 28 2:00 PM, San Andrés, Weather by CustomWeather, © 2016

Note: Actual official high and low records may vary slightly from our data, if they occured in-between our weather recording intervals... More about our weather records

Advertising

San Andrés Weather History for the Previous 24 Hours

Scroll right to see more
 ConditionsComfort  
Time TempWeatherWind HumidityBarometerVisibility
2:00 PM
Wed, Sep 28
88 °FOvercast.12 mph75%29.89 "HgN/A
1:00 PM88 °FPartly sunny.12 mph75%29.91 "HgN/A
12:00 PM88 °FScattered clouds.15 mph75%29.94 "HgN/A
11:00 AM88 °FPassing clouds.14 mph75%29.95 "HgN/A
10:00 AM88 °FScattered clouds.17 mph75%29.93 "HgN/A
9:00 AM86 °FScattered clouds.15 mph75%29.92 "HgN/A
8:00 AM84 °FScattered clouds.12 mph84%29.89 "HgN/A
7:00 AM84 °FPartly sunny.12 mph84%29.87 "HgN/A
6:00 AM82 °FPassing clouds.10 mph89%29.87 "HgN/A
5:00 AM82 °FPassing clouds.9 mph89%29.86 "HgN/A
4:00 AM82 °FPassing clouds.9 mph89%29.85 "HgN/A
3:00 AM82 °FThunderstorms. Passing clouds.10 mph89%29.86 "HgN/A
2:00 AM82 °FThunderstorms. Passing clouds.7 mph89%29.86 "HgN/A
1:00 AM82 °FThunderstorms. Passing clouds.8 mph89%29.87 "HgN/A
12:00 AM82 °FPassing clouds.9 mph89%29.88 "HgN/A
11:00 PM
Tue, Sep 27
82 °FPassing clouds.9 mph84%29.88 "HgN/A
10:00 PM82 °FPartly cloudy.12 mph89%29.89 "HgN/A
9:00 PM82 °FPassing clouds.8 mph89%29.87 "HgN/A
8:00 PM81 °FPassing clouds.2 mph89%29.84 "HgN/A
7:00 PM81 °FPassing clouds.5 mph84%29.82 "HgN/A
6:00 PM81 °FPartly sunny.7 mph89%29.83 "HgN/A
5:00 PM77 °FThunderstorms. Partly sunny.5 mph94%29.83 "HgN/A
4:00 PM77 °FThunderstorms. Broken clouds.7 mph94%29.84 "Hg3 mi
3:00 PM86 °FPassing clouds.6 mph75%29.82 "HgN/A
Weather by CustomWeather, © 2016

See weather overviewHow to use our weather pages